This demonstration page uses our WeatherBlox Daily Observations layout. Learn more.

Left ArrowRight Arrow

53.62937, 11.41316

Hourly Observations for March 21, 2021

Temp ( °F °C ) Dew Point ( °F °C ) Humidity (%) Winds ( mph kmh ) Pressure ( in mb ) Visibility ( mi km ) Precip ( " mm )
7:50 am 07:50 Mostly Cloudy 39 4 34 1 81 81 W 7 11 29.92 1013 30 48 N/A
8:20 am 08:20 Mostly Sunny 41 5 34 1 76 76 W 8 13 29.92 1013 30 48 N/A
8:50 am 08:50 Mostly Sunny 43 6 34 1 71 71 W 6 9 29.92 1013 30 48 N/A
9:20 am 09:20 Mostly Sunny 43 6 34 1 71 71 NW 17 28 29.92 1013 30 48 N/A
9:50 am 09:50 Mostly Sunny 45 7 34 1 66 66 NW 17 28 29.95 1014 30 48 N/A
10:20 am 10:20 Partly Cloudy 46 8 34 1 62 62 NNW 17 28 29.94 1014 30 48 N/A
10:50 am 10:50 Mostly Sunny 45 7 32 0 61 61 NNW 17 28 29.97 1015 30 48 N/A
11:20 am 11:20 Mostly Sunny 46 8 34 1 62 62 NNW 17 28 29.97 1015 30 48 N/A
11:50 am 11:50 Mostly Sunny 46 8 34 1 62 62 VRB 7 11 29.97 1015 30 48 N/A
12:20 pm 12:20 Mostly Sunny 46 8 30 -1 53 53 VRB 8 13 29.97 1015 30 48 N/A
12:50 pm 12:50 Mostly Sunny 48 9 32 0 54 54 VRB 7 11 29.97 1015 7 11 N/A
1:20 pm 13:20 Mostly Sunny 48 9 30 -1 50 50 VRB 7 11 29.97 1015 30 48 N/A
1:50 pm 13:50 Mostly Sunny 48 9 32 0 54 54 VRB 6 9 30.00 1016 30 48 N/A
2:20 pm 14:20 Mostly Sunny 48 9 30 -1 50 50 VRB 7 11 30.00 1016 30 48 N/A
2:50 pm 14:50 Mostly Sunny 48 9 28 -2 46 46 VRB 7 11 30.00 1016 30 48 N/A
3:20 pm 15:20 Mostly Sunny 50 10 28 -2 43 43 W 7 11 30.00 1016 30 48 N/A
3:50 pm 15:50 Mostly Sunny 48 9 28 -2 46 46 VRB 6 9 30.00 1016 30 48 N/A
4:20 pm 16:20 Mostly Sunny 48 9 25 -4 40 40 NW 6 9 30.00 1016 30 48 N/A
4:50 pm 16:50 Mostly Sunny 46 8 25 -4 43 43 VRB 3 6 30.00 1016 30 48 N/A
5:20 pm 17:20 Mostly Sunny 46 8 25 -4 43 43 VRB 3 6 30.00 1016 7 11 N/A
5:50 pm 17:50 Mostly Sunny 46 8 27 -3 46 46 VRB 2 4 30.00 1016 7 11 N/A
6:20 pm 18:20 Mostly Sunny 45 7 25 -4 46 46 VRB 2 4 30.00 1016 7 11 N/A
6:50 pm 18:50 Mostly Clear 45 7 25 -4 46 46 VRB 1 2 30.00 1016 7 11 N/A
7:20 pm 19:20 Mostly Clear 43 6 28 -2 57 57 WSW 2 4 30.00 1016 7 11 N/A
7:50 pm 19:50 Mostly Clear 43 6 32 0 66 66 WSW 5 7 30.03 1017 7 11 N/A

Powered by AerisWeather